Location: Linton
(52.0940°N, 0.2850°E)
Time: 03:14:30
(UTC+01:00)

ISS - Pass Details

Date: 09 October 2017
Orbit: 401 x 408 km, 51.6° (Epoch: 18 October)

Event Time Altitude Azimuth Distance (km) Brightness Sun altitude
Rises 19:19:35 0° 279° (W) 2,326 2.2 -10.3°
Reaches altitude 10° 19:21:40 10° 276° (W) 1,466 0.6 -10.6°
Maximum altitude 19:24:55 65° 195° (SSW) 453 -3.6 -11.1°
Enters shadow 19:27:16 17° 116° (ESE) 1,100 -2.2 -11.5°
